Weather History for Salisbury, MD

Change the Weather History Date:

Friday, May 24, 2013

  Actual Average Record
Temperature  
Mean Temperature 62 °F 65 °F  
Max Temperature 70 °F 76 °F 91 °F (1964)
Min Temperature 53 °F 54 °F 38 °F (1926)
Degree Days  
Heating Degree Days 3 3  
Month to date heating degree days 98 124  
Since 1 July heating degree days 3846 4404  
Cooling Degree Days 0 3  
Month to date cooling degree days 94 41  
Year to date cooling degree days 140 58  
Growing Degree Days 12 (Base 50)    
Moisture  
Dew Point 56 °F    
Average Humidity 73    
Maximum Humidity 90    
Minimum Humidity 55    
Precipitation  
Precipitation 0.43 in 0.13 in 1.48 in (1978)
Month to date precipitation 3.32 2.73  
Year to date precipitation 18.65 17.66  
Snow  
Snow 0.00 in 0.00 in 0.00 in (2002)
Month to date snowfall 0.0 0.0  
Since 1 July snowfall 2.8 9.3  
Snow Depth 0.00 in    
Sea Level Pressure  
Sea Level Pressure 29.86 in    
Wind  
Wind Speed 12 mph (WNW)    
Max Wind Speed 24 mph    
Max Gust Speed 32 mph    
Visibility 8 miles    
Events Rain    
T = Trace of Precipitation, MM = Missing Value Source: NWS Daily Summary

Daily Weather History Graph

Daily Weather History Graph

Search for Another Location

Airport:

Trip Planner

Search our weather history database for the weather conditions in past years. The results will help you decide how hot, cold, wet, or windy it might be!

Date:

Astronomy

May. 24, 2013 Rise Set
Actual Time 5:44 AM EDT 8:14 PM EDT
Civil Twilight 5:13 AM EDT 8:44 PM EDT
Nautical Twilight 4:35 AM EDT 9:22 PM EDT
Astronomical Twilight 3:53 AM EDT 10:04 PM EDT
Moon 7:54 PM EDT (5/24) 5:13 AM EDT (5/24)
Length of Visible Light 15h 31m
Length of Day
14h 30m
Full, 100% of the Moon is Illuminated
May 24
Full
May 25
Full
May 31
Last Quarter
Jun 8
New
Jun 16
First Quarter

Hourly Weather History & Observations

Time (EDT) Temp. Dew Point Humidity Pressure Visibility Wind Dir Wind Speed Gust Speed Precip Events Conditions
12:08 AM 69.8 °F 66.2 °F 88% 29.79 in 8.0 mi WSW 3.5 mph - N/A   Mostly Cloudy
12:43 AM 69.8 °F 66.2 °F 88% 29.77 in 7.0 mi South 3.5 mph - N/A   Overcast
12:54 AM 69.1 °F 66.0 °F 90% 29.78 in 7.0 mi South 6.9 mph - N/A   Overcast
1:54 AM 70.0 °F 66.0 °F 87% 29.77 in 3.0 mi SSW 6.9 mph - 0.03 in Rain Rain
2:04 AM 69.8 °F 66.2 °F 88% 29.77 in 2.0 mi SW 5.8 mph - 0.07 in Rain Heavy Rain
2:12 AM 69.8 °F 66.2 °F 88% 29.77 in 1.5 mi SW 9.2 mph - 0.20 in Rain Heavy Rain
2:17 AM 69.8 °F 66.2 °F 88% 29.76 in 2.0 mi SSW 8.1 mph - 0.22 in Rain Rain
2:39 AM 69.8 °F 66.2 °F 88% 29.74 in 4.0 mi SW 3.5 mph - 0.34 in Rain Rain
2:54 AM 70.0 °F 66.0 °F 87% 29.74 in 10.0 mi SSW 4.6 mph - 0.34 in   Overcast
3:19 AM 69.8 °F 66.2 °F 88% 29.74 in 10.0 mi SSW 5.8 mph - N/A   Overcast
3:54 AM 70.0 °F 66.0 °F 87% 29.75 in 10.0 mi SSW 4.6 mph - 0.00 in Rain Light Rain
4:54 AM 69.1 °F 64.9 °F 87% 29.75 in 10.0 mi West 4.6 mph - 0.01 in Rain Light Rain
5:54 AM 68.0 °F 64.0 °F 87% 29.75 in 10.0 mi WNW 6.9 mph - 0.00 in   Scattered Clouds
6:54 AM 66.9 °F 63.0 °F 87% 29.78 in 8.0 mi Calm Calm - N/A   Clear
7:54 AM 69.1 °F 63.0 °F 81% 29.78 in 10.0 mi West 6.9 mph - N/A   Scattered Clouds
8:54 AM 70.0 °F 63.0 °F 78% 29.81 in 10.0 mi West 10.4 mph - N/A   Overcast
9:54 AM 70.0 °F 62.1 °F 76% 29.81 in 10.0 mi NW 11.5 mph - 0.01 in   Mostly Cloudy
10:24 AM 69.8 °F 62.6 °F 78% 29.81 in 10.0 mi NW 9.2 mph - N/A   Overcast
10:54 AM 64.9 °F 57.0 °F 75% 29.84 in 10.0 mi WNW 13.8 mph 26.5 mph N/A   Overcast
11:31 AM 62.6 °F 53.6 °F 72% 29.85 in 10.0 mi NW 18.4 mph 25.3 mph N/A   Overcast
11:54 AM 63.0 °F 53.1 °F 70% 29.86 in 10.0 mi NW 15.0 mph 24.2 mph N/A   Overcast
12:04 PM 62.6 °F 53.6 °F 72% 29.85 in 10.0 mi NW 16.1 mph 25.3 mph N/A   Overcast
12:54 PM 60.1 °F 52.0 °F 75% 29.89 in 10.0 mi WNW 16.1 mph 24.2 mph N/A   Overcast
1:09 PM 59.0 °F 53.6 °F 82% 29.89 in 7.0 mi NW 11.5 mph 19.6 mph 0.00 in Rain Light Rain
1:16 PM 57.2 °F 53.6 °F 88% 29.89 in 4.0 mi NW 10.4 mph 21.9 mph 0.00 in Rain Light Rain
1:54 PM 57.0 °F 52.0 °F 83% 29.91 in 4.0 mi NW 15.0 mph 20.7 mph 0.02 in Rain Light Rain
2:01 PM 57.2 °F 51.8 °F 82% 29.91 in 7.0 mi NW 12.7 mph 19.6 mph 0.01 in Rain Light Rain
2:21 PM 57.2 °F 51.8 °F 82% 29.90 in 10.0 mi NW 17.3 mph 26.5 mph 0.01 in Rain Light Rain
2:54 PM 57.0 °F 50.0 °F 77% 29.91 in 4.0 mi NNW 17.3 mph 27.6 mph 0.02 in Rain Light Rain
3:54 PM 57.0 °F 48.9 °F 74% 29.93 in 10.0 mi NW 12.7 mph 25.3 mph 0.00 in   Overcast
4:03 PM 57.2 °F 48.2 °F 72% 29.93 in 10.0 mi NW 12.7 mph 24.2 mph N/A   Overcast
4:54 PM 57.9 °F 45.0 °F 62% 29.95 in 10.0 mi NW 15.0 mph 25.3 mph N/A   Overcast
5:54 PM 59.0 °F 44.1 °F 58% 29.97 in 10.0 mi NNW 13.8 mph 24.2 mph N/A   Overcast
6:54 PM 57.9 °F 43.0 °F 58% 29.99 in 10.0 mi NW 16.1 mph - N/A   Overcast
7:54 PM 57.0 °F 42.1 °F 57% 30.01 in 10.0 mi NW 11.5 mph 17.3 mph N/A   Overcast
8:54 PM 55.9 °F 43.0 °F 62% 30.03 in 10.0 mi WNW 13.8 mph 26.5 mph 0.00 in   Overcast
9:54 PM 55.0 °F 44.1 °F 67% 30.05 in 10.0 mi NW 11.5 mph - N/A   Overcast
10:54 PM 55.0 °F 39.9 °F 57% 30.08 in 10.0 mi NNW 17.3 mph 24.2 mph N/A   Overcast
11:54 PM 54.0 °F 39.9 °F 59% 30.08 in 10.0 mi NW 12.7 mph 19.6 mph N/A   Overcast